| time (UTC) | temp F | wind direction | speed MPH | gust MPH | rain 1hr in | rain 24hr in | rain mn in | humidity % | barometer mb |
| 20260503020050 | 48 | 0 | 0.0 | 0.0 | 0.00 | 0.00 | 0.00 | 52 | 1014.2 |
| 20260503014603 | 49 | 0 | 0.0 | 0.0 | 0.00 | 0.00 | 0.00 | 51 | 1014.2 |
| 20260503013053 | 50 | 0 | 0.0 | 0.0 | 0.00 | 0.00 | 0.00 | 49 | 1014.1 |
| 20260503011558 | 51 | 0 | 0.0 | 0.0 | 0.00 | 0.00 | 0.00 | 45 | 1014.0 |
| 20260503010103 | 53 | 0 | 0.0 | 0.0 | 0.00 | 0.00 | 0.00 | 44 | 1014.0 |
| 20260503004614 | 53 | 0 | 0.0 | 2.0 | 0.00 | 0.00 | 0.00 | 41 | 1014.1 |
| 20260503003104 | 54 | 0 | 0.0 | 1.0 | 0.00 | 0.00 | 0.00 | 40 | 1014.0 |
| 20260503001552 | 55 | 290 | 1.0 | 4.0 | 0.00 | 0.00 | 0.00 | 38 | 1014.1 |
| 20260503000056 | 56 | 0 | 0.0 | 4.0 | 0.00 | 0.00 | 0.00 | 39 | 1014.0 |
| 20260502234551 | 56 | 302 | 0.0 | 5.0 | 0.00 | 0.00 | 0.00 | 37 | 1014.2 |
| 20260502233052 | 56 | 280 | 0.0 | 4.0 | 0.00 | 0.00 | 0.00 | 39 | 1014.2 |
| 20260502231556 | 58 | 257 | 0.0 | 4.0 | 0.00 | 0.00 | 0.00 | 36 | 1014.3 |
| 20260502230054 | 57 | 295 | 0.0 | 4.0 | 0.00 | 0.00 | 0.00 | 37 | 1014.3 |
| 20260502224550 | 56 | 0 | 0.0 | 6.0 | 0.00 | 0.00 | 0.00 | 38 | 1014.4 |
| 20260502223053 | 55 | 275 | 0.0 | 3.0 | 0.00 | 0.00 | 0.00 | 40 | 1014.5 |
| 20260502221550 | 54 | 252 | 0.0 | 4.0 | 0.00 | 0.00 | 0.00 | 40 | 1014.5 |
| 20260502220054 | 54 | 275 | 0.0 | 4.0 | 0.00 | 0.00 | 0.00 | 41 | 1014.6 |
| 20260502214559 | 54 | 289 | 1.0 | 7.0 | 0.00 | 0.00 | 0.00 | 40 | 1014.7 |
| 20260502213058 | 54 | 0 | 1.0 | 6.0 | 0.00 | 0.00 | 0.00 | 40 | 1014.6 |
| 20260502211558 | 54 | 263 | 0.0 | 3.0 | 0.00 | 0.00 | 0.00 | 40 | 1014.7 |
| 20260502210104 | 54 | 305 | 1.0 | 9.0 | 0.00 | 0.00 | 0.00 | 39 | 1015.1 |
| 20260502204611 | 55 | 247 | 1.0 | 7.0 | 0.00 | 0.00 | 0.00 | 40 | 1015.1 |
| 20260502203118 | 55 | 272 | 1.0 | 5.0 | 0.00 | 0.00 | 0.00 | 38 | 1015.3 |
| 20260502201556 | 55 | 262 | 1.0 | 4.0 | 0.00 | 0.00 | 0.00 | 38 | 1015.4 |
| 20260502200100 | 54 | 261 | 0.0 | 3.0 | 0.00 | 0.00 | 0.00 | 40 | 1015.6 |
| 20260502194601 | 53 | 287 | 0.0 | 5.0 | 0.00 | 0.00 | 0.00 | 39 | 1015.9 |
| 20260502193104 | 53 | 316 | 0.0 | 3.0 | 0.00 | 0.00 | 0.00 | 40 | 1016.1 |
| 20260502191601 | 53 | 311 | 0.0 | 5.0 | 0.00 | 0.00 | 0.00 | 40 | 1016.3 |
| 20260502190053 | 54 | 281 | 1.0 | 5.0 | 0.00 | 0.00 | 0.00 | 38 | 1016.3 |
| 20260502184603 | 53 | 348 | 1.0 | 7.0 | 0.00 | 0.00 | 0.00 | 40 | 1016.5 |
| 20260502183054 | 52 | 317 | 0.0 | 3.0 | 0.00 | 0.00 | 0.00 | 40 | 1016.8 |
| 20260502181607 | 52 | 309 | 2.0 | 5.0 | 0.00 | 0.00 | 0.00 | 38 | 1016.7 |
| 20260502163101 | 50 | 330 | 1.0 | 7.0 | 0.00 | 0.00 | 0.00 | 42 | 1017.8 |
| 20260502161558 | 50 | 308 | 0.0 | 5.0 | 0.00 | 0.00 | 0.00 | 44 | 1017.8 |
| 20260502151604 | 48 | 271 | 3.0 | 8.0 | 0.00 | 0.00 | 0.00 | 45 | 1018.1 |
| 20260502123051 | 35 | 0 | 0.0 | 0.0 | 0.00 | 0.00 | 0.00 | 85 | 1018.0 |
| 20260502121551 | 34 | 0 | 0.0 | 0.0 | 0.00 | 0.00 | 0.00 | 87 | 1017.9 |
| 20260502114557 | 32 | 0 | 0.0 | 1.0 | 0.00 | 0.00 | 0.00 | 89 | 1017.6 |
| 20260502113056 | 30 | 0 | 0.0 | 0.0 | 0.00 | 0.00 | 0.00 | 89 | 1017.5 |
| 20260502111550 | 30 | 0 | 0.0 | 0.0 | 0.00 | 0.00 | 0.00 | 88 | 1017.4 |
| 20260502110057 | 30 | 0 | 0.0 | 0.0 | 0.00 | 0.00 | 0.00 | 88 | 1017.3 |
| 20260502104551 | 29 | 0 | 0.0 | 0.0 | 0.00 | 0.01 | 0.00 | 88 | 1017.2 |
| 20260502103055 | 29 | 0 | 0.0 | 0.0 | 0.00 | 0.01 | 0.00 | 88 | 1017.1 |
| 20260502101552 | 29 | 0 | 0.0 | 0.0 | 0.00 | 0.01 | 0.00 | 88 | 1017.3 |
| 20260502080105 | 31 | 0 | 0.0 | 0.0 | 0.00 | 0.05 | 0.00 | 86 | 1016.8 |
| 20260502070052 | 31 | 0 | 0.0 | 0.0 | 0.00 | 0.05 | 0.00 | 85 | 1017.4 |
| 20260502064600 | 32 | 0 | 0.0 | 0.0 | 0.00 | 0.05 | 0.00 | 85 | 1017.4 |
| 20260502063050 | 32 | 0 | 0.0 | 0.0 | 0.00 | 0.05 | 0.00 | 85 | 1017.5 |
| 20260502061550 | 32 | 0 | 0.0 | 0.0 | 0.00 | 0.05 | 0.00 | 84 | 1017.6 |
| 20260502060056 | 32 | 0 | 0.0 | 0.0 | 0.00 | 0.05 | 0.00 | 84 | 1017.6 |
| 20260502054559 | 33 | 0 | 0.0 | 0.0 | 0.00 | 0.08 | 0.00 | 84 | 1017.7 |
| 20260502053049 | 33 | 0 | 0.0 | 0.0 | 0.00 | 0.08 | 0.00 | 83 | 1017.6 |
| 20260502051558 | 33 | 0 | 0.0 | 0.0 | 0.00 | 0.08 | 0.00 | 83 | 1017.6 |
| 20260502050055 | 33 | 0 | 0.0 | 0.0 | 0.00 | 0.08 | 0.00 | 82 | 1017.7 |
| 20260502044555 | 34 | 0 | 0.0 | 0.0 | 0.00 | 0.08 | 0.08 | 82 | 1017.8 |
| 20260502043054 | 34 | 0 | 0.0 | 0.0 | 0.00 | 0.08 | 0.08 | 81 | 1017.6 |
| 20260502041549 | 34 | 0 | 0.0 | 0.0 | 0.00 | 0.08 | 0.08 | 80 | 1017.5 |
| 20260502040104 | 35 | 0 | 0.0 | 0.0 | 0.00 | 0.08 | 0.08 | 79 | 1017.6 |
| 20260502034556 | 35 | 0 | 0.0 | 0.0 | 0.00 | 0.09 | 0.08 | 77 | 1017.6 |
| 20260502033052 | 36 | 0 | 0.0 | 0.0 | 0.00 | 0.09 | 0.08 | 76 | 1017.4 |
| 20260502031614 | 36 | 0 | 0.0 | 0.0 | 0.00 | 0.09 | 0.08 | 75 | 1017.4 |
| 20260502030052 | 36 | 0 | 0.0 | 0.0 | 0.00 | 0.09 | 0.08 | 73 | 1017.3 |
| 20260502024551 | 37 | 0 | 0.0 | 0.0 | 0.00 | 0.24 | 0.08 | 71 | 1017.2 |
| 20260502023055 | 38 | 0 | 0.0 | 0.0 | 0.00 | 0.24 | 0.08 | 71 | 1017.1 |
| 20260502021550 | 38 | 0 | 0.0 | 0.0 | 0.00 | 0.24 | 0.08 | 70 | 1017.1 |